Showing default

LEMUR 2 MYNAMEISJEFF, 62712

Orbit data source: Space-Track

LEMUR 2 MYNAMEISJEFF, 62712 is a payload satellite owned by Spire (US) in SSO that was launched on Tue, 14 Jan 2025 UTC via an FALCON 9 launch vehicle from the Air Force Western Test Range (AFWTR). Payload-class satellites include a variety of spacecraft equipped with specific instruments for various scientific and technological missions. These include communications satellites like Starlink; space stations such as the ISS; scientific satellites like the Hubble; Earth observation satellites from companies like Planet Labs, Umbra, and HawkEye 360; GPS; miniature CubeSats for education and research; and military/defense satellites.

Loading next visibility...
Identifier
62712, 2025-009DH
Orbit
SSO
Country
Flag of USUS
Related business
Manufacturer
Spire/Glasgow
Mission
Operational Commercial Com/MetRO
Bus & Motor
CUBESAT 3U, Unknown motor
Mass
7.6 kg wet, 7.6 kg dry
Launch date (UTC)
2025-01-14 (1 year ago)
Launch vehicle
FALCON 9
Launch site
Air Force Western Test Range (AFWTR)
Object type
Payload
Rocket body
Debris
Shape & HBR
Box + 2 Pan, 0.2 m
Radar Cross Section
0.063 m², Small (<0.1 m²)

Expand to show TLE details & history
Last TLE update: 10 hours ago

TLE from 10 hours ago
0 LEMUR 2 MYNAMEISJEFF
1 62712U 25009DH  26131.95323245  .00004570  00000-0  34231-3 0  9992
2 62712  97.7299 215.0645 0000789   1.5280 358.5948 15.03202850 72182
Epoch: 2026-05-11T22:52Z
TLE epoch observation values (Epoch: 2026-05-11T22:52:39.283Z)
Latitude
0.00003°
Longitude
2.16625°
Altitude
559.539 km
Speed
7.582 km/s
True Right ascension
14h 20m 15s
True Declination
0° 00' 00"
Sunlit
Object was in full shadow at epoch
Visualization orbit readout
Latitude
Unknown
Longitude
Unknown
Altitude
Unknown
Speed
Unknown
Apparent Right ascension
Unknown
Apparent Declination
Unknown
Sunlit
N/A
Visualization observer readout
Local Sidereal Time
17:40:00
Azimuth
Unknown
Elevation
Unknown
Doppler factor
Unknown
Orbital elements
Apogee altitude
554.577 km
Perigee altitude
553.483 km
Semi-major axis
6,932.167 km
Eccentricity
0.00008
Inclination
97.7299°
RAAN
215.0645°
Arg. of periapsis
1.528°
True anomaly
358.59458°
Mean anomaly
358.5948°
Eccentric anomaly
358.59469°
Mean motion
3.76045 °/min
Orbital period
95.73 mins
BSTAR
0.00034231
Loading maneuver chart data...
Computing Atmospheric mass density...
Loading historical data...
Loading historical data...
Loading historical data...
Loading historical data...
Loading historical data...
Loading historical data...
Loading historical data...

Documentation

Showing up to 5 results
|